Satellite: OKEAN-4
Catalog number: 23317
Epoch time:      09274.38948830
Element set:      32
Inclination:      082.5380 deg
RA of node:       235.3675 deg
Eccentricity:    0.0023076
Arg of perigee:   019.1395 deg
Mean anomaly:     341.0712 deg
Mean motion:   14.82723034 rev/day
Decay rate:        4.6e-07 rev/day^2
Epoch rev:           80810
Checksum:              283

Satellite: NOAA-14
Catalog number: 23455
Epoch time:      09273.83388782
Element set:    0777
Inclination:      098.9010 deg
RA of node:       351.1032 deg
Eccentricity:    0.0008627
Arg of perigee:   249.0561 deg
Mean anomaly:     110.9668 deg
Mean motion:   14.13771264 rev/day
Decay rate:       2.76e-06 rev/day^2
Epoch rev:           76085
Checksum:              323

Satellite: NOAA-15
Catalog number: 25338
Epoch time:      09273.95421388
Element set:    0102
Inclination:      098.5953 deg
RA of node:       260.8966 deg
Eccentricity:    0.0011594
Arg of perigee:   107.6987 deg
Mean anomaly:     252.5470 deg
Mean motion:   14.24785451 rev/day
Decay rate:       -6.2e-07 rev/day^2
Epoch rev:           59183
Checksum:              337

Satellite: RESURS
Catalog number: 25394
Epoch time:      09274.52722595
Element set:     322
Inclination:      098.3332 deg
RA of node:       301.4257 deg
Eccentricity:    0.0000584
Arg of perigee:   283.6753 deg
Mean anomaly:     076.4367 deg
Mean motion:   14.24188335 rev/day
Decay rate:       -4.4e-07 rev/day^2
Epoch rev:           58353
Checksum:              305

Satellite: FENGYUN1
Catalog number: 25730
Epoch time:      09274.87977484
Element set:     864
Inclination:      098.7622 deg
RA of node:       241.8803 deg
Eccentricity:    0.0021289
Arg of perigee:   276.4904 deg
Mean anomaly:     083.3841 deg
Mean motion:   14.07997828 rev/day
Decay rate:       6.65e-06 rev/day^2
Epoch rev:           53533
Checksum:              353

Satellite: OKEAN-0
Catalog number: 25860
Epoch time:      09273.82863152
Element set:     797
Inclination:      097.7992 deg
RA of node:       250.8805 deg
Eccentricity:    0.0000965
Arg of perigee:   104.0659 deg
Mean anomaly:     256.0654 deg
Mean motion:   14.73589467 rev/day
Decay rate:        3.8e-07 rev/day^2
Epoch rev:           54870
Checksum:              344

Satellite: NOAA-16
Catalog number: 26536
Epoch time:      09273.90603039
Element set:    0581
Inclination:      099.1819 deg
RA of node:       280.1507 deg
Eccentricity:    0.0010426
Arg of perigee:   349.7532 deg
Mean anomaly:     010.3409 deg
Mean motion:   14.12533489 rev/day
Decay rate:       -7.6e-07 rev/day^2
Epoch rev:           46522
Checksum:              301

Satellite: NOAA-17
Catalog number: 27453
Epoch time:      09273.81311304
Element set:    0576
Inclination:      098.4725 deg
RA of node:       329.1823 deg
Eccentricity:    0.0011872
Arg of perigee:   170.6142 deg
Mean anomaly:     189.5239 deg
Mean motion:   14.24094935 rev/day
Decay rate:       1.38e-06 rev/day^2
Epoch rev:           37778
Checksum:              324

Satellite: NOAA-18
Catalog number: 28654
Epoch time:      09273.89668546
Element set:    0064
Inclination:      098.9154 deg
RA of node:       216.3545 deg
Eccentricity:    0.0015256
Arg of perigee:   065.9548 deg
Mean anomaly:     294.3236 deg
Mean motion:   14.11291037 rev/day
Decay rate:       4.07e-06 rev/day^2
Epoch rev:           22486
Checksum:              336

Satellite: NOAA-19
Catalog number: 33591
Epoch time:      09273.89937101
Element set:    0269
Inclination:      098.7550 deg
RA of node:       216.9505 deg
Eccentricity:    0.0013517
Arg of perigee:   307.0748 deg
Mean anomaly:     052.9198 deg
Mean motion:   14.10990770 rev/day
Decay rate:       3.93e-06 rev/day^2
Epoch rev:           03334
Checksum:              325

/EX
SB KEPS @ AMSAT  $ORB09274.M
Orbital Elements  09274.MISC

HR AMSAT ORBITAL ELEMENTS FOR MANNED AND MISCELLANEOUS SATELLITES
FROM WA5QGD FORT WORTH,TX October 1, 2009
Send Subscribe/unsubscribe to KEPS at 
http://www.amsat.org/mailman/listinfo/keps
BID: ORB09274.M
TO ALL RADIO AMATEURS BT

Satellite: HUBBLE
Catalog number: 20580
Epoch time:      09272.11815026
Element set:    0454
Inclination:      028.4692 deg
RA of node:       143.9754 deg
Eccentricity:    0.0003175
Arg of perigee:   304.5197 deg
Mean anomaly:     055.5135 deg
Mean motion:   15.00834089 rev/day
Decay rate:       3.43e-06 rev/day^2
Epoch rev:           86548
Checksum:              293

Satellite: ISS
Catalog number: 25544
Epoch time:      09274.76960447
Element set:     706
Inclination:      051.6375 deg
RA of node:       119.6248 deg
Eccentricity:    0.0008616
Arg of perigee:   151.6185 deg
Mean anomaly:     208.5817 deg
Mean motion:   15.74522651 rev/day
Decay rate:     1.3069e-04 rev/day^2
Epoch rev:           62274
Checksum:              320

Satellite: CO-58
Catalog number: 28895
Epoch time:      09274.17005537
Element set:     408
Inclination:      098.0427 deg
RA of node:       161.7287 deg
Eccentricity:    0.0018343
Arg of perigee:   019.7635 deg
Mean anomaly:     340.4255 deg
Mean motion:   14.59798613 rev/day
Decay rate:        4.5e-07 rev/day^2
Epoch rev:           20919
Checksum:              336

